Time,TemperatureF,DewpointF,PressureIn,WindDirection,WindDirectionDegrees,WindSpeedMPH,WindSpeedGustMPH,Humidity,HourlyPrecipIn,Conditions,Clouds,dailyrainin,SoftwareType,DateUTC
2013-05-25 00:01:00,51.5,41.7,29.65,SSW,203,0.2,2.0,69,0.00,,,0.00,WUHU216HW,2013-05-25 07:01:00,
2013-05-25 00:06:00,51.7,41.9,29.65,SSW,203,0.2,2.0,69,0.00,,,0.00,WUHU216HW,2013-05-25 07:06:00,
2013-05-25 00:11:00,51.7,41.9,29.65,South,180,1.6,1.6,69,0.00,,,0.00,WUHU216HW,2013-05-25 07:11:00,
2013-05-25 00:16:00,51.5,42.1,29.65,WNW,293,0.2,2.2,70,0.00,,,0.00,WUHU216HW,2013-05-25 07:16:00,
2013-05-25 00:21:00,51.5,42.1,29.65,WSW,248,0.0,2.2,70,0.00,,,0.00,WUHU216HW,2013-05-25 07:21:00,
2013-05-25 00:26:00,51.5,42.1,29.65,NW,315,0.4,1.8,70,0.00,,,0.00,WUHU216HW,2013-05-25 07:26:00,
2013-05-25 00:31:00,51.5,42.1,29.65,NW,315,0.4,0.7,70,0.00,,,0.00,WUHU216HW,2013-05-25 07:31:00,
2013-05-25 00:36:00,51.3,42.3,29.65,SSE,158,0.0,0.7,71,0.00,,,0.00,WUHU216HW,2013-05-25 07:36:00,
2013-05-25 00:41:00,51.3,42.3,29.65,South,180,0.0,1.1,71,0.00,,,0.00,WUHU216HW,2013-05-25 07:41:00,
2013-05-25 00:46:00,51.3,42.3,29.64,West,270,0.4,1.1,71,0.00,,,0.00,WUHU216HW,2013-05-25 07:46:00,
2013-05-25 00:51:00,51.1,42.1,29.65,WNW,293,0.0,1.1,71,0.00,,,0.00,WUHU216HW,2013-05-25 07:51:00,
2013-05-25 00:56:00,51.1,42.1,29.65,South,180,0.4,0.4,71,0.00,,,0.00,WUHU216HW,2013-05-25 07:56:00,
2013-05-25 01:01:00,51.1,42.1,29.65,South,180,0.0,0.9,71,0.00,,,0.00,WUHU216HW,2013-05-25 08:01:00,
2013-05-25 01:06:00,51.1,42.1,29.65,West,270,0.0,0.9,71,0.00,,,0.00,WUHU216HW,2013-05-25 08:06:00,
2013-05-25 01:11:00,50.9,42.3,29.65,WSW,248,0.0,2.2,72,0.00,,,0.00,WUHU216HW,2013-05-25 08:11:00,
2013-05-25 01:16:00,50.9,42.3,29.65,SW,225,0.4,2.2,72,0.00,,,0.00,WUHU216HW,2013-05-25 08:16:00,
2013-05-25 01:21:00,51.1,42.5,29.65,SW,225,0.0,1.6,72,0.00,,,0.00,WUHU216HW,2013-05-25 08:21:00,
2013-05-25 01:26:00,50.9,42.3,29.65,NNE,23,0.7,1.6,72,0.00,,,0.00,WUHU216HW,2013-05-25 08:26:00,
2013-05-25 01:31:00,51.1,42.5,29.65,SW,225,0.7,1.8,72,0.00,,,0.00,WUHU216HW,2013-05-25 08:31:00,
2013-05-25 01:36:00,51.1,42.5,29.65,North,0,0.4,1.8,72,0.00,,,0.00,WUHU216HW,2013-05-25 08:36:00,
2013-05-25 01:41:00,51.1,42.5,29.65,NNW,338,0.0,2.2,72,0.00,,,0.00,WUHU216HW,2013-05-25 08:41:00,
2013-05-25 01:46:00,51.1,42.5,29.65,North,0,0.0,2.2,72,0.00,,,0.00,WUHU216HW,2013-05-25 08:46:00,
2013-05-25 01:51:00,51.3,42.7,29.65,WSW,248,2.5,2.5,72,0.00,,,0.00,WUHU216HW,2013-05-25 08:51:00,
2013-05-25 01:56:00,51.3,42.7,29.65,SW,225,0.4,2.5,72,0.00,,,0.00,WUHU216HW,2013-05-25 08:56:00,
2013-05-25 02:02:00,51.3,42.7,29.65,WSW,248,1.1,2.5,72,0.00,,,0.00,WUHU216HW,2013-05-25 09:02:00,
2013-05-25 02:07:00,51.3,42.9,29.64,South,180,0.9,2.2,73,0.00,,,0.00,WUHU216HW,2013-05-25 09:07:00,
2013-05-25 02:12:00,51.3,42.9,29.64,West,270,1.1,2.2,73,0.00,,,0.00,WUHU216HW,2013-05-25 09:12:00,
2013-05-25 02:17:00,51.3,42.9,29.65,NNE,23,0.0,1.8,73,0.00,,,0.00,WUHU216HW,2013-05-25 09:17:00,
2013-05-25 02:22:00,51.3,42.9,29.65,SSW,203,0.4,1.6,73,0.00,,,0.00,WUHU216HW,2013-05-25 09:22:00,
2013-05-25 02:27:00,51.3,42.9,29.65,NW,315,0.0,0.9,73,0.00,,,0.00,WUHU216HW,2013-05-25 09:27:00,
2013-05-25 02:32:00,51.3,42.9,29.64,SSW,203,0.7,1.1,73,0.00,,,0.00,WUHU216HW,2013-05-25 09:32:00,
2013-05-25 02:37:00,51.3,42.9,29.64,ENE,68,0.7,1.1,73,0.00,,,0.00,WUHU216HW,2013-05-25 09:37:00,
2013-05-25 02:42:00,51.3,42.9,29.65,SW,225,0.7,1.6,73,0.00,,,0.00,WUHU216HW,2013-05-25 09:42:00,
2013-05-25 02:47:00,51.3,42.9,29.65,NW,315,0.0,1.6,73,0.00,,,0.00,WUHU216HW,2013-05-25 09:47:00,
2013-05-25 02:52:00,51.1,42.8,29.65,NE,45,0.4,1.3,73,0.00,,,0.00,WUHU216HW,2013-05-25 09:52:00,
2013-05-25 02:57:00,51.1,42.8,29.65,NNW,338,0.4,1.3,73,0.00,,,0.00,WUHU216HW,2013-05-25 09:57:00,
2013-05-25 03:02:00,51.1,42.8,29.64,WSW,248,0.9,2.2,73,0.00,,,0.00,WUHU216HW,2013-05-25 10:02:00,
2013-05-25 03:07:00,51.1,42.8,29.64,SW,225,0.2,2.2,73,0.00,,,0.00,WUHU216HW,2013-05-25 10:07:00,
2013-05-25 03:12:00,51.1,42.8,29.64,South,180,0.0,0.9,73,0.00,,,0.00,WUHU216HW,2013-05-25 10:12:00,
2013-05-25 03:17:00,51.1,42.8,29.64,WSW,248,0.0,0.9,73,0.00,,,0.00,WUHU216HW,2013-05-25 10:17:00,
2013-05-25 03:22:00,51.1,42.8,29.64,WSW,248,0.0,0.9,73,0.00,,,0.00,WUHU216HW,2013-05-25 10:22:00,
2013-05-25 03:27:00,50.9,42.9,29.64,South,180,1.3,1.3,74,0.00,,,0.00,WUHU216HW,2013-05-25 10:27:00,
2013-05-25 03:32:00,50.9,42.9,29.64,ESE,113,0.9,1.3,74,0.00,,,0.00,WUHU216HW,2013-05-25 10:32:00,
2013-05-25 03:37:00,50.8,42.4,29.64,ENE,68,0.4,1.3,73,0.00,,,0.00,WUHU216HW,2013-05-25 10:37:00,
2013-05-25 03:42:00,50.8,42.8,29.64,South,180,0.2,1.3,74,0.00,,,0.00,WUHU216HW,2013-05-25 10:42:00,
2013-05-25 03:47:00,50.8,42.8,29.64,SW,225,0.0,1.3,74,0.00,,,0.00,WUHU216HW,2013-05-25 10:47:00,
2013-05-25 03:52:00,50.8,42.8,29.64,NNW,338,0.2,1.3,74,0.00,,,0.00,WUHU216HW,2013-05-25 10:52:00,
2013-05-25 03:57:00,50.8,42.8,29.64,NNW,338,0.7,1.1,74,0.00,,,0.00,WUHU216HW,2013-05-25 10:57:00,
2013-05-25 04:02:00,50.8,42.8,29.64,West,270,0.4,1.8,74,0.00,,,0.00,WUHU216HW,2013-05-25 11:02:00,
2013-05-25 04:07:00,50.8,42.8,29.64,NNW,338,0.4,1.8,74,0.00,,,0.00,WUHU216HW,2013-05-25 11:07:00,
2013-05-25 04:12:00,50.8,42.8,29.64,NW,315,0.4,1.1,74,0.00,,,0.00,WUHU216HW,2013-05-25 11:12:00,
2013-05-25 04:17:00,50.8,42.8,29.64,West,270,0.4,1.6,74,0.00,,,0.00,WUHU216HW,2013-05-25 11:17:00,
2013-05-25 04:22:00,50.8,42.8,29.64,NNW,338,0.0,1.6,74,0.00,,,0.00,WUHU216HW,2013-05-25 11:22:00,
2013-05-25 04:27:00,50.6,42.6,29.64,WNW,293,0.0,0.9,74,0.00,,,0.00,WUHU216HW,2013-05-25 11:27:00,
2013-05-25 04:32:00,50.6,42.6,29.64,NNW,338,0.2,1.1,74,0.00,,,0.00,WUHU216HW,2013-05-25 11:32:00,
2013-05-25 04:37:00,50.6,42.6,29.64,WSW,248,0.2,1.8,74,0.00,,,0.00,WUHU216HW,2013-05-25 11:37:00,
2013-05-25 04:42:00,50.6,42.6,29.64,NW,315,0.7,1.8,74,0.00,,,0.00,WUHU216HW,2013-05-25 11:42:00,
2013-05-25 04:47:00,50.6,42.6,29.64,NNW,338,0.2,0.7,74,0.00,,,0.00,WUHU216HW,2013-05-25 11:47:00,
2013-05-25 04:52:00,50.6,42.6,29.64,NNW,338,0.2,0.7,74,0.00,,,0.00,WUHU216HW,2013-05-25 11:52:00,
2013-05-25 04:57:00,50.6,42.6,29.64,WNW,293,0.0,0.4,74,0.00,,,0.00,WUHU216HW,2013-05-25 11:57:00,
2013-05-25 05:02:00,50.4,42.4,29.64,WNW,293,0.0,0.2,74,0.00,,,0.00,WUHU216HW,2013-05-25 12:02:00,
2013-05-25 05:07:00,50.4,42.8,29.64,North,0,0.2,0.4,75,0.00,,,0.00,WUHU216HW,2013-05-25 12:07:00,
2013-05-25 05:12:00,50.4,42.8,29.64,SW,225,0.4,2.5,75,0.00,,,0.00,WUHU216HW,2013-05-25 12:12:00,
2013-05-25 05:17:00,50.4,42.8,29.64,East,90,0.0,2.5,75,0.00,,,0.00,WUHU216HW,2013-05-25 12:17:00,
2013-05-25 05:22:00,50.6,42.9,29.64,WSW,248,1.3,1.3,75,0.00,,,0.00,WUHU216HW,2013-05-25 12:22:00,
2013-05-25 05:27:00,50.6,42.9,29.64,West,270,0.0,2.5,75,0.00,,,0.00,WUHU216HW,2013-05-25 12:27:00,
2013-05-25 05:32:00,50.6,42.9,29.64,WNW,293,0.4,2.5,75,0.00,,,0.00,WUHU216HW,2013-05-25 12:32:00,
2013-05-25 05:37:00,50.6,42.9,29.64,SW,225,1.3,1.3,75,0.00,,,0.00,WUHU216HW,2013-05-25 12:37:00,
2013-05-25 05:42:00,50.8,43.1,29.65,South,180,0.2,2.7,75,0.00,,,0.00,WUHU216HW,2013-05-25 12:42:00,
2013-05-25 05:47:00,50.8,43.1,29.65,SSE,158,0.0,2.7,75,0.00,,,0.00,WUHU216HW,2013-05-25 12:47:00,
2013-05-25 05:52:00,50.8,43.1,29.65,SSW,203,1.1,1.1,75,0.00,,,0.00,WUHU216HW,2013-05-25 12:52:00,
2013-05-25 05:57:00,50.6,42.9,29.65,South,180,1.8,2.5,75,0.00,,,0.00,WUHU216HW,2013-05-25 12:57:00,
2013-05-25 06:02:00,50.6,42.9,29.65,NW,315,0.4,2.5,75,0.00,,,0.00,WUHU216HW,2013-05-25 13:02:00,
2013-05-25 06:07:00,50.6,42.9,29.65,SSE,158,0.0,1.3,75,0.00,,,0.00,WUHU216HW,2013-05-25 13:07:00,
2013-05-25 06:12:00,50.6,42.9,29.65,WSW,248,0.0,1.3,75,0.00,,,0.00,WUHU216HW,2013-05-25 13:12:00,
2013-05-25 06:17:00,50.6,42.9,29.65,NW,315,1.8,1.8,75,0.00,,,0.00,WUHU216HW,2013-05-25 13:17:00,
2013-05-25 06:22:00,50.6,42.9,29.65,NNE,23,0.0,2.5,75,0.00,,,0.00,WUHU216HW,2013-05-25 13:22:00,
2013-05-25 06:27:00,50.6,42.9,29.65,NW,315,1.1,2.5,75,0.00,,,0.00,WUHU216HW,2013-05-25 13:27:00,
2013-05-25 06:32:00,50.6,42.9,29.65,East,90,0.7,1.8,75,0.00,,,0.00,WUHU216HW,2013-05-25 13:32:00,
2013-05-25 06:37:00,50.6,42.9,29.65,South,180,0.4,2.0,75,0.00,,,0.00,WUHU216HW,2013-05-25 13:37:00,
2013-05-25 06:42:00,50.8,43.1,29.65,SSW,203,2.0,2.0,75,0.00,,,0.00,WUHU216HW,2013-05-25 13:42:00,
2013-05-25 06:47:00,50.8,43.1,29.66,WSW,248,1.8,2.0,75,0.00,,,0.00,WUHU216HW,2013-05-25 13:47:00,
2013-05-25 06:52:00,50.8,43.1,29.66,South,180,1.8,2.5,75,0.00,,,0.00,WUHU216HW,2013-05-25 13:52:00,
2013-05-25 06:57:00,50.8,43.1,29.66,SSE,158,0.9,2.5,75,0.00,,,0.00,WUHU216HW,2013-05-25 13:57:00,
2013-05-25 07:02:00,50.9,43.3,29.66,WSW,248,0.0,2.5,75,0.00,,,0.00,WUHU216HW,2013-05-25 14:02:00,
2013-05-25 07:07:00,51.1,43.5,29.66,North,0,1.6,2.2,75,0.00,,,0.00,WUHU216HW,2013-05-25 14:07:00,
2013-05-25 07:12:00,51.3,43.7,29.66,SSE,158,2.2,2.5,75,0.00,,,0.00,WUHU216HW,2013-05-25 14:12:00,
2013-05-25 07:17:00,51.3,43.7,29.66,WSW,248,0.7,2.5,75,0.00,,,0.00,WUHU216HW,2013-05-25 14:17:00,
2013-05-25 07:22:00,51.5,43.8,29.66,South,180,1.1,2.2,75,0.00,,,0.00,WUHU216HW,2013-05-25 14:22:00,
2013-05-25 07:27:00,51.7,43.7,29.66,WNW,293,0.0,1.1,74,0.00,,,0.00,WUHU216HW,2013-05-25 14:27:00,
2013-05-25 07:32:00,51.8,43.8,29.66,NNW,338,0.4,2.5,74,0.00,,,0.00,WUHU216HW,2013-05-25 14:32:00,
2013-05-25 07:37:00,52.0,44.0,29.66,SSW,203,0.9,2.5,74,0.00,,,0.00,WUHU216HW,2013-05-25 14:37:00,
2013-05-25 07:42:00,52.2,44.2,29.66,SSW,203,0.9,1.6,74,0.00,,,0.00,WUHU216HW,2013-05-25 14:42:00,
2013-05-25 07:47:00,52.4,44.4,29.67,WSW,248,1.3,2.5,74,0.00,,,0.00,WUHU216HW,2013-05-25 14:47:00,
2013-05-25 07:52:00,52.6,44.6,29.67,SW,225,2.5,3.8,74,0.00,,,0.00,WUHU216HW,2013-05-25 14:52:00,
2013-05-25 07:57:00,52.7,44.4,29.67,SSW,203,0.0,3.8,73,0.00,,,0.00,WUHU216HW,2013-05-25 14:57:00,
2013-05-25 08:02:00,52.7,44.4,29.66,WSW,248,2.9,2.9,73,0.00,,,0.00,WUHU216HW,2013-05-25 15:02:00,
2013-05-25 08:07:00,52.9,44.6,29.67,SSW,203,3.4,4.0,73,0.00,,,0.00,WUHU216HW,2013-05-25 15:07:00,
2013-05-25 08:12:00,52.9,44.2,29.67,SSW,203,1.3,4.0,72,0.00,,,0.00,WUHU216HW,2013-05-25 15:12:00,
2013-05-25 08:17:00,52.9,44.2,29.67,SSW,203,1.1,3.6,72,0.00,,,0.00,WUHU216HW,2013-05-25 15:17:00,
2013-05-25 08:22:00,52.9,44.2,29.67,West,270,6.3,6.3,72,0.00,,,0.00,WUHU216HW,2013-05-25 15:22:00,
2013-05-25 08:27:00,53.1,44.3,29.67,NNW,338,1.3,6.3,72,0.00,,,0.00,WUHU216HW,2013-05-25 15:27:00,
2013-05-25 08:32:00,53.3,44.5,29.67,WSW,248,1.3,6.3,72,0.00,,,0.00,WUHU216HW,2013-05-25 15:32:00,
2013-05-25 08:37:00,53.3,44.8,29.67,SSW,203,1.1,3.4,73,0.00,,,0.00,WUHU216HW,2013-05-25 15:37:00,
2013-05-25 08:42:00,53.5,45.0,29.67,WSW,248,1.1,2.5,73,0.00,,,0.00,WUHU216HW,2013-05-25 15:42:00,
2013-05-25 08:47:00,53.6,44.8,29.67,SSW,203,3.6,4.3,72,0.00,,,0.00,WUHU216HW,2013-05-25 15:47:00,
2013-05-25 08:52:00,53.6,44.8,29.67,SSW,203,2.0,4.3,72,0.00,,,0.00,WUHU216HW,2013-05-25 15:52:00,
2013-05-25 08:57:00,53.6,44.8,29.67,NNW,338,0.0,3.6,72,0.00,,,0.00,WUHU216HW,2013-05-25 15:57:00,
2013-05-25 09:02:00,53.6,44.8,29.67,SSW,203,2.7,2.9,72,0.00,,,0.00,WUHU216HW,2013-05-25 16:02:00,
2013-05-25 09:07:00,53.8,45.0,29.67,SW,225,2.7,3.6,72,0.00,,,0.00,WUHU216HW,2013-05-25 16:07:00,
2013-05-25 09:12:00,54.0,44.8,29.67,SW,225,3.8,6.0,71,0.00,,,0.00,WUHU216HW,2013-05-25 16:12:00,
2013-05-25 09:17:00,54.2,45.0,29.67,SW,225,2.7,6.0,71,0.00,,,0.00,WUHU216HW,2013-05-25 16:17:00,
2013-05-25 09:22:00,54.4,44.8,29.67,West,270,0.7,3.8,70,0.00,,,0.00,WUHU216HW,2013-05-25 16:22:00,
2013-05-25 09:27:00,54.4,44.8,29.67,South,180,2.0,5.1,70,0.00,,,0.00,WUHU216HW,2013-05-25 16:27:00,
2013-05-25 09:32:00,54.5,45.0,29.67,SSE,158,4.7,5.1,70,0.00,,,0.00,WUHU216HW,2013-05-25 16:32:00,
2013-05-25 09:37:00,54.7,45.2,29.67,SSW,203,1.8,6.5,70,0.00,,,0.00,WUHU216HW,2013-05-25 16:37:00,
2013-05-25 09:42:00,55.1,45.1,29.67,WSW,248,1.6,6.5,69,0.00,,,0.00,WUHU216HW,2013-05-25 16:42:00,
2013-05-25 09:47:00,55.4,45.5,29.67,SSW,203,0.7,4.9,69,0.00,,,0.00,WUHU216HW,2013-05-25 16:47:00,
2013-05-25 09:52:00,55.4,45.5,29.67,SSW,203,1.6,4.0,69,0.00,,,0.00,WUHU216HW,2013-05-25 16:52:00,
2013-05-25 09:57:00,55.4,45.5,29.67,SSW,203,1.8,3.4,69,0.00,,,0.00,WUHU216HW,2013-05-25 16:57:00,
2013-05-25 10:02:00,55.8,45.4,29.67,WNW,293,2.0,3.4,68,0.00,,,0.00,WUHU216HW,2013-05-25 17:02:00,
2013-05-25 10:07:00,56.0,45.5,29.67,SW,225,4.7,6.9,68,0.00,,,0.00,WUHU216HW,2013-05-25 17:07:00,
2013-05-25 10:12:00,56.2,45.7,29.67,South,180,1.8,6.9,68,0.00,,,0.00,WUHU216HW,2013-05-25 17:12:00,
2013-05-25 10:17:00,56.5,46.1,29.67,South,180,3.4,6.0,68,0.00,,,0.00,WUHU216HW,2013-05-25 17:17:00,
2013-05-25 10:22:00,56.5,45.3,29.67,SSW,203,5.4,6.0,66,0.00,,,0.00,WUHU216HW,2013-05-25 17:22:00,
2013-05-25 10:27:00,56.9,45.6,29.67,SSW,203,1.6,5.4,66,0.00,,,0.00,WUHU216HW,2013-05-25 17:27:00,
2013-05-25 10:32:00,57.1,45.4,29.67,SW,225,1.3,6.9,65,0.00,,,0.00,WUHU216HW,2013-05-25 17:32:00,
2013-05-25 10:37:00,57.4,45.7,29.67,SSE,158,2.5,6.9,65,0.00,,,0.00,WUHU216HW,2013-05-25 17:37:00,
2013-05-25 10:42:00,57.8,46.1,29.67,SW,225,2.0,3.8,65,0.00,,,0.00,WUHU216HW,2013-05-25 17:42:00,
2013-05-25 10:47:00,58.1,46.0,29.67,North,0,1.6,4.5,64,0.00,,,0.00,WUHU216HW,2013-05-25 17:47:00,
2013-05-25 10:52:00,58.5,46.4,29.67,NNW,338,2.0,4.5,64,0.00,,,0.00,WUHU216HW,2013-05-25 17:52:00,
2013-05-25 10:57:00,58.9,46.3,29.67,South,180,5.4,5.4,63,0.00,,,0.00,WUHU216HW,2013-05-25 17:57:00,
2013-05-25 11:02:00,58.9,46.3,29.67,SSW,203,4.7,5.4,63,0.00,,,0.00,WUHU216HW,2013-05-25 18:02:00,
2013-05-25 11:07:00,59.0,46.5,29.67,WSW,248,2.5,4.9,63,0.00,,,0.00,WUHU216HW,2013-05-25 18:07:00,
2013-05-25 11:12:00,59.4,46.4,29.67,SSW,203,3.6,4.9,62,0.00,,,0.00,WUHU216HW,2013-05-25 18:12:00,
2013-05-25 11:17:00,59.8,46.7,29.67,SSW,203,4.0,4.7,62,0.00,,,0.00,WUHU216HW,2013-05-25 18:17:00,
2013-05-25 11:22:00,60.1,46.7,29.67,WSW,248,0.2,5.6,61,0.00,,,0.00,WUHU216HW,2013-05-25 18:22:00,
2013-05-25 11:27:00,60.7,47.3,29.67,WSW,248,1.3,5.6,61,0.00,,,0.00,WUHU216HW,2013-05-25 18:27:00,
2013-05-25 11:32:00,61.2,47.4,29.67,West,270,2.7,5.8,60,0.00,,,0.00,WUHU216HW,2013-05-25 18:32:00,
2013-05-25 11:37:00,61.6,47.2,29.67,SSW,203,4.9,5.8,59,0.00,,,0.00,WUHU216HW,2013-05-25 18:37:00,
2013-05-25 11:42:00,62.1,47.6,29.67,SW,225,1.1,6.5,59,0.00,,,0.00,WUHU216HW,2013-05-25 18:42:00,
2013-05-25 11:47:00,63.0,48.4,29.67,SW,225,2.5,6.5,59,0.00,,,0.00,WUHU216HW,2013-05-25 18:47:00,
2013-05-25 11:52:00,63.5,48.4,29.67,NW,315,0.4,4.0,58,0.00,,,0.00,WUHU216HW,2013-05-25 18:52:00,
2013-05-25 11:57:00,64.1,48.4,29.67,WSW,248,1.8,4.7,57,0.00,,,0.00,WUHU216HW,2013-05-25 18:57:00,
2013-05-25 12:02:00,64.6,48.4,29.67,SSW,203,3.4,5.4,56,0.00,,,0.00,WUHU216HW,2013-05-25 19:02:00,
2013-05-25 12:07:00,64.8,47.7,29.67,West,270,3.1,5.6,54,0.00,,,0.00,WUHU216HW,2013-05-25 19:07:00,
2013-05-25 12:12:00,65.0,48.3,29.67,SW,225,2.0,5.6,55,0.00,,,0.00,WUHU216HW,2013-05-25 19:12:00,
2013-05-25 12:17:00,65.5,48.4,29.67,South,180,2.7,5.1,54,0.00,,,0.00,WUHU216HW,2013-05-25 19:17:00,
2013-05-25 12:22:00,66.1,49.4,29.67,SSW,203,3.1,5.1,55,0.00,,,0.00,WUHU216HW,2013-05-25 19:22:00,
2013-05-25 12:27:00,66.6,49.4,29.67,West,270,2.5,3.6,54,0.00,,,0.00,WUHU216HW,2013-05-25 19:27:00,
2013-05-25 12:32:00,67.0,49.8,29.67,West,270,3.4,3.6,54,0.00,,,0.00,WUHU216HW,2013-05-25 19:32:00,
2013-05-25 12:37:00,67.3,49.6,29.67,SW,225,0.4,5.1,53,0.00,,,0.00,WUHU216HW,2013-05-25 19:37:00,
2013-05-25 12:42:00,67.3,49.6,29.67,NNW,338,0.9,5.6,53,0.00,,,0.00,WUHU216HW,2013-05-25 19:42:00,
2013-05-25 12:47:00,67.5,49.8,29.67,ESE,113,1.1,5.6,53,0.00,,,0.00,WUHU216HW,2013-05-25 19:47:00,
2013-05-25 12:52:00,67.5,49.2,29.67,SSW,203,4.0,5.4,52,0.00,,,0.00,WUHU216HW,2013-05-25 19:52:00,
2013-05-25 12:57:00,67.3,48.6,29.67,WSW,248,6.9,7.8,51,0.00,,,0.00,WUHU216HW,2013-05-25 19:57:00,
2013-05-25 13:02:00,67.1,49.0,29.67,WSW,248,0.9,7.8,52,0.00,,,0.00,WUHU216HW,2013-05-25 20:02:00,
2013-05-25 13:07:00,67.7,49.4,29.67,SSW,203,2.7,6.9,52,0.00,,,0.00,WUHU216HW,2013-05-25 20:07:00,
2013-05-25 13:12:00,68.0,49.2,29.68,SSE,158,3.8,5.1,51,0.00,,,0.00,WUHU216HW,2013-05-25 20:12:00,
2013-05-25 13:17:00,68.2,49.4,29.68,NNW,338,1.1,3.8,51,0.00,,,0.00,WUHU216HW,2013-05-25 20:17:00,
2013-05-25 13:22:00,68.4,49.6,29.67,WNW,293,1.8,2.5,51,0.00,,,0.00,WUHU216HW,2013-05-25 20:22:00,
2013-05-25 13:27:00,68.4,49.6,29.67,NW,315,1.8,3.1,51,0.00,,,0.00,WUHU216HW,2013-05-25 20:27:00,
2013-05-25 13:32:00,68.6,49.2,29.67,ESE,113,0.4,3.1,50,0.00,,,0.00,WUHU216HW,2013-05-25 20:32:00,
2013-05-25 13:37:00,68.4,49.2,29.67,South,180,4.0,4.7,50,0.00,,,0.00,WUHU216HW,2013-05-25 20:37:00,
2013-05-25 13:42:00,68.4,49.2,29.67,ENE,68,1.1,4.7,50,0.00,,,0.00,WUHU216HW,2013-05-25 20:42:00,
2013-05-25 13:47:00,68.6,48.7,29.67,West,270,2.7,5.1,49,0.00,,,0.00,WUHU216HW,2013-05-25 20:47:00,
2013-05-25 13:52:00,68.4,48.5,29.67,NW,315,2.5,5.1,49,0.00,,,0.00,WUHU216HW,2013-05-25 20:52:00,
2013-05-25 13:57:00,67.9,47.4,29.67,SE,135,2.5,4.0,48,0.00,,,0.00,WUHU216HW,2013-05-25 20:57:00,
2013-05-25 14:02:00,67.7,47.9,29.67,SSE,158,3.1,4.7,49,0.00,,,0.00,WUHU216HW,2013-05-25 21:02:00,
2013-05-25 14:07:00,67.5,48.3,29.67,SW,225,1.1,6.5,50,0.00,,,0.00,WUHU216HW,2013-05-25 21:07:00,
2013-05-25 14:12:00,67.7,47.9,29.68,West,270,4.3,6.5,49,0.00,,,0.00,WUHU216HW,2013-05-25 21:12:00,
2013-05-25 14:17:00,67.5,47.1,29.68,WSW,248,2.5,4.3,48,0.00,,,0.00,WUHU216HW,2013-05-25 21:17:00,
2013-05-25 14:22:00,67.3,47.5,29.68,SW,225,1.1,5.8,49,0.00,,,0.00,WUHU216HW,2013-05-25 21:22:00,
2013-05-25 14:27:00,67.5,47.7,29.68,NNW,338,1.6,5.8,49,0.00,,,0.00,WUHU216HW,2013-05-25 21:27:00,
2013-05-25 14:32:00,67.5,47.1,29.68,NNW,338,2.0,4.0,48,0.00,,,0.00,WUHU216HW,2013-05-25 21:32:00,
2013-05-25 14:37:00,67.7,47.3,29.67,West,270,2.5,5.4,48,0.00,,,0.00,WUHU216HW,2013-05-25 21:37:00,
2013-05-25 14:42:00,67.1,46.8,29.68,North,0,0.9,7.2,48,0.00,,,0.00,WUHU216HW,2013-05-25 21:42:00,
2013-05-25 14:47:00,66.8,47.1,29.68,West,270,2.5,7.2,49,0.00,,,0.00,WUHU216HW,2013-05-25 21:47:00,
2013-05-25 14:52:00,66.8,46.4,29.68,SSE,158,3.1,6.5,48,0.00,,,0.00,WUHU216HW,2013-05-25 21:52:00,
2013-05-25 14:57:00,66.6,46.3,29.68,South,180,2.5,5.4,48,0.00,,,0.00,WUHU216HW,2013-05-25 21:57:00,
2013-05-25 15:02:00,66.6,46.3,29.68,SSW,203,3.4,6.3,48,0.00,,,0.00,WUHU216HW,2013-05-25 22:02:00,
2013-05-25 15:07:00,66.4,45.5,29.68,WSW,248,4.7,6.9,47,0.00,,,0.00,WUHU216HW,2013-05-25 22:07:00,
2013-05-25 15:12:00,66.2,45.4,29.68,WNW,293,2.0,6.9,47,0.00,,,0.00,WUHU216HW,2013-05-25 22:12:00,
2013-05-25 15:17:00,66.1,45.2,29.68,NNE,23,1.6,7.6,47,0.00,,,0.00,WUHU216HW,2013-05-25 22:17:00,
2013-05-25 15:22:00,66.1,45.2,29.67,NNE,23,2.5,7.6,47,0.00,,,0.00,WUHU216HW,2013-05-25 22:22:00,
2013-05-25 15:27:00,66.2,45.4,29.67,West,270,3.1,3.1,47,0.00,,,0.00,WUHU216HW,2013-05-25 22:27:00,
2013-05-25 15:32:00,66.2,46.0,29.67,West,270,1.8,4.9,48,0.00,,,0.00,WUHU216HW,2013-05-25 22:32:00,
2013-05-25 15:37:00,66.2,46.0,29.67,SSE,158,1.6,4.9,48,0.00,,,0.00,WUHU216HW,2013-05-25 22:37:00,
2013-05-25 15:42:00,65.7,46.0,29.67,SSE,158,2.2,4.0,49,0.00,,,0.00,WUHU216HW,2013-05-25 22:42:00,
2013-05-25 15:47:00,65.5,45.8,29.67,NW,315,2.0,4.0,49,0.00,,,0.00,WUHU216HW,2013-05-25 22:47:00,
2013-05-25 15:52:00,65.3,46.3,29.67,WSW,248,1.1,4.0,50,0.00,,,0.00,WUHU216HW,2013-05-25 22:52:00,
2013-05-25 15:57:00,65.3,46.3,29.67,SSW,203,1.8,3.8,50,0.00,,,0.00,WUHU216HW,2013-05-25 22:57:00,
2013-05-25 16:02:00,65.5,46.4,29.67,SSW,203,1.6,3.8,50,0.00,,,0.00,WUHU216HW,2013-05-25 23:02:00,
2013-05-25 16:07:00,65.7,47.1,29.67,SW,225,1.1,3.1,51,0.00,,,0.00,WUHU216HW,2013-05-25 23:07:00,
2013-05-25 16:12:00,65.9,47.3,29.67,SSW,203,2.7,4.9,51,0.00,,,0.00,WUHU216HW,2013-05-25 23:12:00,
2013-05-25 16:17:00,65.7,46.6,29.67,South,180,1.1,4.9,50,0.00,,,0.00,WUHU216HW,2013-05-25 23:17:00,
2013-05-25 16:22:00,65.5,46.9,29.67,SSW,203,1.1,3.8,51,0.00,,,0.00,WUHU216HW,2013-05-25 23:22:00,
2013-05-25 16:27:00,65.5,46.9,29.67,West,270,1.8,3.6,51,0.00,,,0.00,WUHU216HW,2013-05-25 23:27:00,
2013-05-25 16:32:00,65.2,46.5,29.67,SSE,158,0.4,3.6,51,0.00,,,0.00,WUHU216HW,2013-05-25 23:32:00,
2013-05-25 16:37:00,65.2,47.1,29.67,South,180,1.1,4.7,52,0.00,,,0.00,WUHU216HW,2013-05-25 23:37:00,
2013-05-25 16:43:00,65.0,46.9,29.67,NNW,338,2.5,4.7,52,0.00,,,0.00,WUHU216HW,2013-05-25 23:43:00,
2013-05-25 16:48:00,64.8,46.7,29.67,SW,225,1.1,3.1,52,0.00,,,0.00,WUHU216HW,2013-05-25 23:48:00,
2013-05-25 16:53:00,64.4,46.8,29.67,WSW,248,1.1,6.5,53,0.00,,,0.00,WUHU216HW,2013-05-25 23:53:00,
2013-05-25 16:58:00,64.1,46.5,29.67,West,270,2.5,6.5,53,0.00,,,0.00,WUHU216HW,2013-05-25 23:58:00,
2013-05-25 17:03:00,63.7,46.6,29.68,WSW,248,5.6,6.3,54,0.00,,,0.00,WUHU216HW,2013-05-26 00:03:00,
2013-05-25 17:08:00,62.8,46.4,29.68,SSW,203,3.8,7.6,55,0.00,,,0.00,WUHU216HW,2013-05-26 00:08:00,
2013-05-25 17:13:00,62.6,46.6,29.68,SW,225,2.5,7.6,56,0.00,,,0.00,WUHU216HW,2013-05-26 00:13:00,
2013-05-25 17:18:00,62.5,46.5,29.68,NNW,338,1.8,5.1,56,0.00,,,0.00,WUHU216HW,2013-05-26 00:18:00,
2013-05-25 17:23:00,62.3,46.8,29.68,NW,315,1.1,5.1,57,0.00,,,0.00,WUHU216HW,2013-05-26 00:23:00,
2013-05-25 17:28:00,62.1,46.6,29.68,West,270,1.1,6.0,57,0.00,,,0.00,WUHU216HW,2013-05-26 00:28:00,
2013-05-25 17:33:00,61.9,46.5,29.68,WNW,293,0.9,6.0,57,0.00,,,0.00,WUHU216HW,2013-05-26 00:33:00,
2013-05-25 17:38:00,61.6,46.6,29.68,South,180,2.0,5.4,58,0.00,,,0.00,WUHU216HW,2013-05-26 00:38:00,
2013-05-25 17:43:00,61.6,46.6,29.68,NNW,338,0.4,4.9,58,0.00,,,0.00,WUHU216HW,2013-05-26 00:43:00,
2013-05-25 17:48:00,61.4,47.0,29.68,WSW,248,1.1,4.9,59,0.00,,,0.00,WUHU216HW,2013-05-26 00:48:00,
2013-05-25 17:53:00,61.2,46.8,29.68,NNW,338,0.2,4.5,59,0.00,,,0.00,WUHU216HW,2013-05-26 00:53:00,
2013-05-25 17:58:00,60.8,47.0,29.68,SSW,203,3.1,4.5,60,0.00,,,0.00,WUHU216HW,2013-05-26 00:58:00,
2013-05-25 18:03:00,60.7,46.8,29.68,SSW,203,2.5,4.5,60,0.00,,,0.00,WUHU216HW,2013-05-26 01:03:00,
2013-05-25 18:08:00,60.5,47.1,29.68,SW,225,0.9,3.4,61,0.00,,,0.00,WUHU216HW,2013-05-26 01:08:00,
2013-05-25 18:13:00,60.3,46.9,29.68,SSW,203,0.9,2.5,61,0.00,,,0.00,WUHU216HW,2013-05-26 01:13:00,
2013-05-25 18:18:00,60.3,46.9,29.68,South,180,2.5,2.5,61,0.00,,,0.00,WUHU216HW,2013-05-26 01:18:00,
2013-05-25 18:23:00,59.9,46.9,29.68,NNW,338,1.1,2.5,62,0.00,,,0.00,WUHU216HW,2013-05-26 01:23:00,
2013-05-25 18:28:00,59.8,46.7,29.68,NNW,338,2.5,3.1,62,0.00,,,0.00,WUHU216HW,2013-05-26 01:28:00,
2013-05-25 18:33:00,59.6,46.5,29.68,SSW,203,1.8,4.7,62,0.00,,,0.00,WUHU216HW,2013-05-26 01:33:00,
2013-05-25 18:38:00,59.2,46.6,29.68,South,180,1.8,4.7,63,0.00,,,0.00,WUHU216HW,2013-05-26 01:38:00,
2013-05-25 18:43:00,58.9,46.3,29.68,SSW,203,2.2,4.0,63,0.00,,,0.00,WUHU216HW,2013-05-26 01:43:00,
2013-05-25 18:48:00,58.5,46.4,29.68,SW,225,1.8,4.0,64,0.00,,,0.00,WUHU216HW,2013-05-26 01:48:00,
2013-05-25 18:53:00,58.3,46.2,29.68,West,270,0.4,4.5,64,0.00,,,0.00,WUHU216HW,2013-05-26 01:53:00,
2013-05-25 18:58:00,58.0,45.8,29.68,NW,315,0.7,4.5,64,0.00,,,0.00,WUHU216HW,2013-05-26 01:58:00,
2013-05-25 19:03:00,58.0,46.3,29.68,SSW,203,1.6,4.9,65,0.00,,,0.00,WUHU216HW,2013-05-26 02:03:00,
2013-05-25 19:08:00,57.6,46.3,29.68,South,180,1.1,4.9,66,0.00,,,0.00,WUHU216HW,2013-05-26 02:08:00,
2013-05-25 19:13:00,57.4,46.1,29.68,SSW,203,4.0,4.7,66,0.00,,,0.00,WUHU216HW,2013-05-26 02:13:00,
2013-05-25 19:18:00,57.2,46.4,29.68,SSW,203,0.4,5.4,67,0.00,,,0.00,WUHU216HW,2013-05-26 02:18:00,
2013-05-25 19:23:00,57.1,46.2,29.68,SSW,203,4.3,5.4,67,0.00,,,0.00,WUHU216HW,2013-05-26 02:23:00,
2013-05-25 19:28:00,56.9,46.5,29.68,SW,225,2.0,4.3,68,0.00,,,0.00,WUHU216HW,2013-05-26 02:28:00,
2013-05-25 19:33:00,56.9,46.5,29.68,East,90,0.4,5.4,68,0.00,,,0.00,WUHU216HW,2013-05-26 02:33:00,
2013-05-25 19:38:00,56.7,46.6,29.68,SW,225,0.9,5.4,69,0.00,,,0.00,WUHU216HW,2013-05-26 02:38:00,
2013-05-25 19:43:00,56.7,46.6,29.68,SSW,203,2.5,4.5,69,0.00,,,0.00,WUHU216HW,2013-05-26 02:43:00,
2013-05-25 19:48:00,56.5,46.4,29.69,WSW,248,0.7,3.6,69,0.00,,,0.00,WUHU216HW,2013-05-26 02:48:00,
2013-05-25 19:53:00,56.5,46.9,29.69,SW,225,1.1,5.6,70,0.00,,,0.00,WUHU216HW,2013-05-26 02:53:00,
2013-05-25 19:58:00,56.3,46.7,29.69,SW,225,1.3,5.6,70,0.00,,,0.00,WUHU216HW,2013-05-26 02:58:00,
2013-05-25 20:03:00,56.2,46.9,29.68,South,180,3.8,3.8,71,0.00,,,0.00,WUHU216HW,2013-05-26 03:03:00,
2013-05-25 20:08:00,56.2,46.9,29.69,SE,135,2.2,3.8,71,0.00,,,0.00,WUHU216HW,2013-05-26 03:08:00,
2013-05-25 20:13:00,56.2,46.9,29.69,SW,225,0.7,6.3,71,0.00,,,0.00,WUHU216HW,2013-05-26 03:13:00,
2013-05-25 20:18:00,56.0,47.1,29.69,South,180,0.2,6.3,72,0.00,,,0.00,WUHU216HW,2013-05-26 03:18:00,
2013-05-25 20:23:00,56.0,47.1,29.69,SSE,158,2.5,4.7,72,0.00,,,0.00,WUHU216HW,2013-05-26 03:23:00,
2013-05-25 20:28:00,56.0,47.1,29.69,SE,135,0.2,3.4,72,0.00,,,0.00,WUHU216HW,2013-05-26 03:28:00,
2013-05-25 20:33:00,56.0,47.1,29.69,South,180,1.8,4.3,72,0.00,,,0.00,WUHU216HW,2013-05-26 03:33:00,
2013-05-25 20:38:00,55.8,46.9,29.69,WSW,248,1.1,4.3,72,0.00,,,0.00,WUHU216HW,2013-05-26 03:38:00,
2013-05-25 20:43:00,55.8,47.3,29.69,SSW,203,0.9,3.4,73,0.00,,,0.00,WUHU216HW,2013-05-26 03:43:00,
2013-05-25 20:48:00,55.6,47.1,29.69,SW,225,0.4,5.1,73,0.00,,,0.00,WUHU216HW,2013-05-26 03:48:00,
2013-05-25 20:53:00,55.6,47.1,29.70,SSE,158,0.4,5.1,73,0.00,,,0.00,WUHU216HW,2013-05-26 03:53:00,
2013-05-25 20:58:00,55.4,46.9,29.70,SSW,203,1.8,4.7,73,0.00,,,0.00,WUHU216HW,2013-05-26 03:58:00,
2013-05-25 21:01:00,55.4,47.3,29.70,WSW,248,1.8,5.4,74,0.00,,,0.00,WUHU216HW,2013-05-26 04:01:00,
2013-05-25 21:06:00,55.3,46.7,29.69,WSW,248,0.7,5.4,73,0.00,,,0.00,WUHU216HW,2013-05-26 04:06:00,
2013-05-25 21:11:00,55.3,47.1,29.70,South,180,1.1,2.7,74,0.00,,,0.00,WUHU216HW,2013-05-26 04:11:00,
2013-05-25 21:16:00,55.4,47.3,29.70,SSW,203,3.4,4.7,74,0.00,,,0.00,WUHU216HW,2013-05-26 04:16:00,
2013-05-25 21:21:00,55.3,47.1,29.70,SSW,203,2.2,6.0,74,0.00,,,0.00,WUHU216HW,2013-05-26 04:21:00,
2013-05-25 21:26:00,55.1,47.3,29.70,South,180,1.8,6.3,75,0.00,,,0.00,WUHU216HW,2013-05-26 04:26:00,
2013-05-25 21:31:00,54.9,47.1,29.70,SSW,203,0.2,6.3,75,0.00,,,0.00,WUHU216HW,2013-05-26 04:31:00,
2013-05-25 21:36:00,54.9,47.1,29.70,South,180,1.3,4.0,75,0.00,,,0.00,WUHU216HW,2013-05-26 04:36:00,
2013-05-25 21:41:00,54.9,47.4,29.70,WSW,248,0.4,4.3,76,0.00,,,0.00,WUHU216HW,2013-05-26 04:41:00,
2013-05-25 21:46:00,54.9,47.4,29.70,SSW,203,2.9,4.3,76,0.00,,,0.00,WUHU216HW,2013-05-26 04:46:00,
2013-05-25 21:51:00,54.9,47.4,29.70,West,270,1.3,5.8,76,0.00,,,0.00,WUHU216HW,2013-05-26 04:51:00,
2013-05-25 21:56:00,54.7,47.3,29.71,SSW,203,0.4,5.8,76,0.00,,,0.00,WUHU216HW,2013-05-26 04:56:00,
2013-05-25 22:01:00,54.7,47.3,29.71,South,180,0.2,2.7,76,0.00,,,0.00,WUHU216HW,2013-05-26 05:01:00,
2013-05-25 22:06:00,54.9,47.4,29.71,SSE,158,0.0,1.8,76,0.00,,,0.00,WUHU216HW,2013-05-26 05:06:00,
2013-05-25 22:11:00,54.9,47.4,29.71,North,0,0.0,1.1,76,0.00,,,0.00,WUHU216HW,2013-05-26 05:11:00,
2013-05-25 22:16:00,55.1,47.6,29.71,WSW,248,2.2,2.2,76,0.00,,,0.00,WUHU216HW,2013-05-26 05:16:00,
2013-05-25 22:21:00,55.1,47.6,29.71,WSW,248,0.4,2.2,76,0.00,,,0.00,WUHU216HW,2013-05-26 05:21:00,
2013-05-25 22:26:00,54.9,47.4,29.71,NW,315,1.1,2.5,76,0.00,,,0.00,WUHU216HW,2013-05-26 05:26:00,
2013-05-25 22:31:00,54.7,47.3,29.71,SSW,203,0.9,2.5,76,0.00,,,0.00,WUHU216HW,2013-05-26 05:31:00,
2013-05-25 22:36:00,54.7,47.3,29.72,South,180,1.8,3.1,76,0.00,,,0.00,WUHU216HW,2013-05-26 05:36:00,
2013-05-25 22:41:00,54.5,47.1,29.72,SW,225,0.9,3.1,76,0.00,,,0.00,WUHU216HW,2013-05-26 05:41:00,
2013-05-25 22:46:00,54.5,47.1,29.72,SSW,203,0.0,3.1,76,0.00,,,0.00,WUHU216HW,2013-05-26 05:46:00,
2013-05-25 22:51:00,54.5,47.1,29.72,SSW,203,0.4,1.6,76,0.00,,,0.00,WUHU216HW,2013-05-26 05:51:00,
2013-05-25 22:56:00,54.5,47.1,29.72,SSW,203,0.4,0.9,76,0.00,,,0.00,WUHU216HW,2013-05-26 05:56:00,
2013-05-25 23:01:00,54.4,46.6,29.72,South,180,0.4,2.0,75,0.00,,,0.00,WUHU216HW,2013-05-26 06:01:00,
2013-05-25 23:06:00,54.4,47.0,29.72,South,180,1.8,3.4,76,0.00,,,0.00,WUHU216HW,2013-05-26 06:06:00,
2013-05-25 23:11:00,54.4,47.0,29.72,WSW,248,1.1,3.4,76,0.00,,,0.00,WUHU216HW,2013-05-26 06:11:00,
2013-05-25 23:16:00,54.2,46.8,29.72,South,180,1.8,2.2,76,0.00,,,0.00,WUHU216HW,2013-05-26 06:16:00,
2013-05-25 23:21:00,54.2,46.8,29.72,SSW,203,0.7,2.5,76,0.00,,,0.00,WUHU216HW,2013-05-26 06:21:00,
2013-05-25 23:26:00,54.2,47.2,29.72,SSW,203,0.2,4.9,77,0.00,,,0.00,WUHU216HW,2013-05-26 06:26:00,
2013-05-25 23:31:00,54.2,47.2,29.72,West,270,0.0,4.9,77,0.00,,,0.00,WUHU216HW,2013-05-26 06:31:00,
2013-05-25 23:36:00,54.0,47.0,29.72,NNW,338,0.9,3.8,77,0.00,,,0.00,WUHU216HW,2013-05-26 06:36:00,
2013-05-25 23:41:00,54.0,47.0,29.72,NNW,338,0.9,1.3,77,0.00,,,0.00,WUHU216HW,2013-05-26 06:41:00,
2013-05-25 23:59:00,54.0,47.4,29.72,SSE,158,1.1,1.1,78,0.00,,,0.00,WUHU216HW,2013-05-26 06:59:00,